Voltar ao catálogo

HJS-6B

AtivoCiênciaVLEO
NORAD 63429·PAYLOAD·🇨🇳 China

Lançado Apr 1, 2025 de Jiuquan Satellite Launch Center

Loading…

Próximas Passagens (próximas 24 horas)

TLE

AtualizadoSource: Space-Track

Época: Sep 14, 2026, 14:43 UTC

1 63429U 25067B   26257.61388448  .00014123  00000-0  67440-3 0  9993
2 63429  54.9972 356.8385 0006397 169.2998 190.8158 15.19322657 81539

Acompanhe HJS-6B em tempo real com AllMySat

Download on the App Store